Home > Weather > Billings > Past weeks

Flag for USA Past Weather in Billings, Montana, USA — Yesterday and Last 2 Weeks

Now
72 °F

Passing clouds.


Feels Like: 76 °F
Forecast: 63 / 85 °F
Wind: 8 mph from Northeast

Location: Billings Logan International Airport

Current Time: Jul 28, 2016 at 12:32:02 PM

Latest Report: Jul 28, 2016 at 11:53 AM


Visibility: 10 mi

Pressure: 30.12 "Hg (27.00 "Hg at 946m altitude)

Humidity: 59%

Dew Point: 57 °F

Location of BillingsLocation

Past Weather in Billings — Graph

°F

Billings Temperature Yesterday

Maximum temperature yesterday: 86 °F (at 3:53 PM)
Minimum temperature yesterday: 61 °F (at 5:53 AM)
Average temperature yesterday: 72 °F

High & Low Weather Summary for the Past Weeks

 TemperatureHumidityPressure
High98 °F (Jul 19, 2:53 PM)90% (Jul 28, 4:53 AM)30.15 "Hg (Jul 28, 4:53 AM)
Low54 °F (Jul 14, 5:53 AM)10% (Jul 25, 2:53 PM)29.66 "Hg (Jul 22, 7:53 PM)
Average75 °F41%29.94 "Hg
* Reported Jul 13 10:53 AM — Jul 28 10:53 AM, Billings, Weather by CustomWeather, © 2016

Note: Actual official high and low records may vary slightly from our data, if they occured in-between our weather recording intervals... More about our weather records

Advertising

Billings Weather History for the Previous 24 Hours

Scroll right to see more
 ConditionsComfort  
Time TempWeatherWind HumidityBarometerVisibility
10:53 AM
Thu, Jul 28
69 °FScattered clouds.8 mph68%30.13 "Hg10 mi
9:53 AM66 °FScattered clouds.6 mph75%30.12 "Hg10 mi
8:53 AM65 °FPartly sunny.6 mph81%30.12 "Hg10 mi
7:53 AM61 °FScattered clouds.8 mph90%30.12 "Hg10 mi
6:53 AM61 °FBroken clouds.6 mph87%30.11 "Hg10 mi
5:53 AM61 °FPartly cloudy.8 mph87%30.10 "Hg10 mi
4:53 AM60 °FThunderstorms. Mostly cloudy.14 mph90%30.10 "Hg9 mi
3:53 AM63 °FThunderstorms. Overcast.18 mph87%30.13 "Hg6 mi
2:53 AM66 °FThunderstorms. Partly cloudy.7 mph75%30.09 "Hg10 mi
1:53 AM66 °FPassing clouds.No wind75%30.11 "Hg10 mi
12:53 AM67 °FThunderstorms. Partly cloudy.6 mph71%30.10 "Hg10 mi
11:53 PM
Wed, Jul 27
67 °FPassing clouds.7 mph71%30.09 "Hg10 mi
10:53 PM69 °FPassing clouds.10 mph66%30.07 "Hg10 mi
9:53 PM73 °FPassing clouds.14 mph55%30.07 "Hg10 mi
8:53 PM75 °FPartly sunny.8 mph55%30.04 "Hg10 mi
7:53 PM75 °FScattered clouds.7 mph60%30.03 "Hg10 mi
6:53 PM75 °FScattered clouds.7 mph54%30.03 "Hg10 mi
5:53 PM78 °FThunderstorms. Broken clouds.15 mph48%30.03 "Hg10 mi
4:53 PM81 °FScattered clouds.17 mph39%30.01 "Hg10 mi
3:53 PM86 °FBroken clouds.10 mph30%29.99 "Hg10 mi
2:53 PM85 °FScattered clouds.8 mph31%30.01 "Hg10 mi
1:53 PM82 °FPassing clouds.8 mph33%30.03 "Hg10 mi
12:53 PM81 °FPassing clouds.10 mph35%30.05 "Hg10 mi
Weather by CustomWeather, © 2016

See weather overviewHow to use our weather pages